AirNav   Phillips 66 Aviation Fuel
 
 1422 users online  

Y96 Leo E Goetz County Airport
Onaway, Michigan, USA

GOING TO ONAWAY?


FAA INFORMATION EFFECTIVE 11 OCTOBER 2018

Location

FAA Identifier: Y96
Lat/Long: 45-22-15.0430N / 084-13-30.0520W
45-22.250717N / 084-13.500867W
45.3708453 / -84.2250144
(estimated)
Elevation: 830 ft. / 253 m (estimated)
Variation: 06W (1985)
From city: 1 mile N of ONAWAY, MI
Time zone: UTC -4 (UTC -5 during Standard Time)
Zip code: 49765

Airport Operations

Airport use: Open to the public
Activation date: 04/1940
Control tower: no
ARTCC: MINNEAPOLIS CENTER
FSS: LANSING FLIGHT SERVICE STATION
NOTAMs facility: LAN (NOTAM-D service available)
Attendance: UNATNDD
Wind indicator: yes
Segmented circle: yes

Airport Communications

CTAF: 122.9
WX AWOS-3 at PZQ (18 nm E): 118.125 (989-734-7419)

Nearby radio navigation aids

VOR radial/distance  VOR name  Freq  Var
PLNr136/24.2PELLSTON VORTAC111.8006W
GLRr049/29.5GAYLORD VOR/DME109.2006W
APNr308/33.1ALPENA VORTAC108.8007W

Airport Services

Parking: tiedowns
Airframe service: NONE
Powerplant service: NONE
Bottled oxygen: NONE
Bulk oxygen: NONE

Runway Information

Runway 15/33

Dimensions: 2600 x 60 ft. / 792 x 18 m
Surface: asphalt/L
Operational restrictions: RY 15/33 CLSD NOV-APR & WHEN SNOW COVERED. NO SNOW REMOVAL.
RUNWAY 15  RUNWAY 33
Latitude: 45-22.133333N45-21.762833N
Longitude: 084-13.566667W084-13.263167W
Elevation: 830.0 ft.830.0 ft.
Traffic pattern: leftleft
Markings: basic, in fair conditionbasic, in fair condition
Obstructions: 16 ft. road, 525 ft. from runway, 177 ft. right of centerline, 20:1 slope to clear40 ft. trees, 201 ft. from runway, 120 ft. left of centerline
25 FT TREES, 0-400 FT DSTC, 120 FT L.

Runway 3/21

Dimensions: 1400 x 100 ft. / 427 x 30 m
Surface: turf, in fair condition
EXTENSIVE PAVEMENT CRACKING.
Runway edge markings: RY 3/21 MARKED WITH 3 FT YELLOW CONES.
Operational restrictions: RY 03/21, CLSD NOV-APR & WHEN SNOW COVERED. NO SNOW REMOVAL.
RUNWAY 3  RUNWAY 21
Traffic pattern: leftleft
Obstructions: 41 ft. trees, 396 ft. from runway, 110 ft. right of centerline, 9:1 slope to clear36 ft. trees, 120 ft. from runway, 100 ft. right of centerline, 3:1 slope to clear

Airport Ownership and Management from official FAA records

Ownership: Publicly-owned
Owner: PRESQUE ISLE COUNTY
657 S. BRADLEY HWY
ROGERS CITY, MI 49779
Phone 989-734-4309
Manager: MICHAEL T JERMEAY
657 S. BRADLEY HWY
ROGERS CITY, MI 49779
Phone 989-464-6887

Airport Operational Statistics

Aircraft operations: 200/year *
50% transient general aviation
50% local general aviation
* for 12-month period ending 31 December 2014

Additional Remarks

RANDOM 10-20 FT. BRUSH & TREES IN PRIM SFC.
RY 15, 11 FT POWERLINE 750 FT FM THLD 125 FT R OF CNTRLN. RY 33 14 FT POWERLINE, 676 FT FM THLD, APCH RATIO 34:1.

Instrument Procedures

There are no published instrument procedures at Y96.

Some nearby airports with instrument procedures:

KPZQ - Presque Isle County Airport (18 nm E)
KSLH - Cheboygan County Airport (21 nm NW)
6Y1 - Bois Blanc Island Airport (26 nm NW)
KPLN - Pellston Regional Airport of Emmet County (27 nm NW)
KMGN - Harbor Springs Airport (29 nm W)
 
Loc | Ops | Rwys | IFR | FBO | Links
Com | Nav | Svcs | Stats | Notes


 
Area around Y96 (Leo E Goetz County Airport)
 
Road maps at: MapQuest Bing Google
 
Aerial photo
No photo
 
Sectional chart

 
Airport distance calculator
Flying to Leo E Goetz County Airport? Find the distance to fly.

From to Y96

Sunrise and sunset
Times for 19-Oct-2018
 Local
(UTC-4)
 Zulu
(UTC)
Morning civil twilight07:2911:29
Sunrise07:5911:59
Sunset18:4422:44
Evening civil twilight19:1423:14

Current date and time
Zulu (UTC)  19-Oct-2018 17:29:04
Local (UTC-4)  19-Oct-2018 13:29:04
 
METAR
KPZQ 
18nm E 
191715Z AUTO 22008KT 10SM SCT070 SCT090 OVC120 13/07 A2978 RMK AO2 T01300070
KSLH 
21nm NW 
191715Z AUTO 22009G18KT 10SM SCT070 SCT090 BKN110 13/07 A2972 RMK AO2 T01300068
KPLN 
27nm NW 
191654Z AUTO 22016G26KT 10SM SCT036 BKN050 OVC085 13/07 A2976 RMK AO2 PK WND 23027/1616 RAB34E53 SLP081 P0000 T01330067
KGLR 
29nm SW 
191653Z AUTO 23018G29KT 10SM OVC110 12/05 A2981 RMK AO2 PK WND 23030/1638 SLP098 T01220050
KMGN 
29nm W 
191715Z AUTO 23010G15KT 10SM SCT090 BKN120 12/07 A2974 RMK AO2 T01250071
KAPN 
33nm SE 
191654Z AUTO 22013G20KT 10SM BKN110 14/06 A2982 RMK AO2 SLP099 T01390056
KMCD 
33nm NW 
191715Z AUTO 23019G33KT 10SM -RA BKN065 OVC080 11/05 A2971 RMK AO2 T01130050
TAF
KPLN 
27nm NW 
191132Z 1912/2012 23012G20KT P6SM FEW120 BKN200 WS020/25040KT FM191400 23016G25KT P6SM BKN110 WS020/24045KT FM191500 23018G28KT P6SM VCSH SCT060 BKN100 FM191700 23019G29KT 6SM -SHRA BR OVC030 FM200200 29013G25KT P6SM VCSH BKN030 FM200600 30011G22KT P6SM BKN045
KAPN 
33nm SE 
191132Z 1912/2012 22010KT P6SM SCT250 WS020/26040KT FM191500 23012G21KT P6SM BKN120 FM191800 23014G22KT P6SM VCSH OVC045 FM192100 23014G26KT 6SM -SHRA BR OVC030 FM200300 28011G22KT P6SM VCSH OVC030 FM200600 30011G21KT P6SM BKN040
NOTAMs
Click for the latest NOTAMs
NOTAMs are issued by the DoD/FAA and will open in a separate window not controlled by AirNav.

 

 
 

Would you like to see your business listed on this page?

 If your business provides an interesting product or service to pilots, flight crews, aircraft, or users of the Leo E Goetz County Airport, you should consider listing it here.  To start the listing process, click on the button below
 
Add a business
 

Other Pages about Leo E Goetz County Airport

www.presqueislecounty.org/airport.html
Page from the Michigan Airport Directory (PDF)
 
Update a link
 
Copyright © AirNav, LLC. All rights reserved. Privacy Policy  Contact